Location: Wien
(48.2082°N, 16.3738°E)
Time: 12:37:02
(UTC+01:00)

Vanguard 2 Rocket - Visible Passes

Search period start: 22 February 2024 00:00
Search period end: 03 March 2024 00:00
Orbit: 554 x 3310 km, 32.9° (Epoch: 22 February)

Date Brightness Start Highest point End Pass type
(mag) Time Alt. Az. Time Alt. Az. Time Alt. Az.
22 Feb 10.1 17:48:29 10° WSW 18:02:15 46° S 18:20:33 10° ESE visible
22 Feb 10.3 20:03:01 10° W 20:17:54 34° SSW 20:30:47 17° SSE visible
22 Feb 10.8 22:23:03 10° WSW 22:32:14 15° SW 22:36:25 14° SSW visible
23 Feb 10.2 19:00:09 10° W 19:14:29 39° SSW 19:31:59 10° SE visible
23 Feb 10.6 21:17:03 10° W 21:29:28 22° SW 21:38:31 15° S visible
24 Feb 10.1 17:57:52 10° WSW 18:11:05 42° S 18:28:50 10° SE visible
24 Feb 10.5 20:12:56 10° W 20:26:24 28° SSW 20:40:40 11° SSE visible
25 Feb 10.4 19:09:50 10° W 19:23:10 33° SSW 19:39:33 10° SSE visible
25 Feb 10.9 21:28:45 10° WSW 21:37:46 15° SW 21:47:11 10° SSW visible
26 Feb 10.3 18:07:25 10° WSW 18:19:54 37° SSW 18:36:44 10° SE visible
26 Feb 10.8 20:23:27 10° WSW 20:34:53 21° SW 20:47:44 10° S visible
27 Feb 10.6 19:19:51 10° WSW 19:31:50 27° SSW 19:46:29 10° SSE visible
28 Feb 10.4 18:17:11 10° WSW 18:28:45 31° SSW 18:44:10 10° SSE visible
28 Feb 11.0 20:35:20 10° WSW 20:43:23 15° SW 20:52:13 10° SSW visible
29 Feb 10.8 19:30:32 10° WSW 19:40:31 20° SSW 19:52:26 10° S visible
01 Mar 10.7 18:27:22 10° WSW 18:37:35 25° SSW 18:50:55 10° SSE visible
02 Mar 11.1 19:42:53 10° WSW 19:49:14 13° SW 19:56:22 10° SSW visible
